Location: Rounton
(54.4000°N, 1.3500°W)
Time: 14:48:35
(UTC+00:00)

Altair - Pass Details

Date: 01 December 2021
Orbit: 1501 x 1683 km, 47.2° (Epoch: 20 January)

Event Time Altitude Azimuth Distance (km) Brightness Sun altitude
Rises 14:32:50 0° 181° (S) 4,765 11.1 6.5°
Reaches altitude 10° 14:37:39 10° 161° (SSE) 3,748 10.1 6.1°
Maximum altitude 14:42:31 15° 130° (SE) 3,304 9.3 5.6°
Drops below altitude 10° 14:47:18 10° 98° (E) 3,692 9.2 5.2°
Sets 14:51:57 0° 78° (ENE) 4,657 9.5 4.8°
